| time (UTC) | temp C | wind direction | speed KPH | gust KPH | rain 1hr cm | rain 24hr cm | rain mn cm | humidity % | barometer mb |
| 20260502152023 | 22 | 143 | 6.4 | 14.5 | 0.00 | 0.00 | 0.00 | 51 | 1018.3 |
| 20260502151020 | 22 | 192 | 6.4 | 12.9 | 0.00 | 0.00 | 0.00 | 50 | 1018.4 |
| 20260502123032 | 23 | 107 | 6.4 | 17.7 | 0.00 | 0.00 | 0.00 | 52 | 1019.4 |
| 20260502122029 | 23 | 85 | 4.8 | 17.7 | 0.00 | 0.00 | 0.00 | 54 | 1019.3 |
| 20260502121026 | 23 | 131 | 4.8 | 12.9 | 0.00 | 0.00 | 0.00 | 56 | 1019.5 |
| 20260502115020 | 22 | 85 | 3.2 | 11.3 | 0.00 | 0.00 | 0.00 | 58 | 1019.5 |
| 20260502114038 | 23 | 57 | 3.2 | 6.4 | 0.00 | 0.00 | 0.00 | 58 | 1019.6 |
| 20260502113135 | 23 | 194 | 3.2 | 9.7 | 0.00 | 0.00 | 0.00 | 58 | 1019.7 |
| 20260502112111 | 23 | 91 | 3.2 | 14.5 | 0.00 | 0.00 | 0.00 | 58 | 1019.9 |
| 20260502111129 | 22 | 166 | 3.2 | 9.7 | 0.00 | 0.00 | 0.00 | 61 | 1020.1 |
| 20260502110105 | 22 | 91 | 4.8 | 11.3 | 0.00 | 0.00 | 0.00 | 62 | 1020.0 |
| 20260502105102 | 22 | 87 | 4.8 | 14.5 | 0.00 | 0.00 | 0.00 | 61 | 1020.3 |
| 20260502104059 | 22 | 113 | 3.2 | 9.7 | 0.00 | 0.00 | 0.00 | 62 | 1020.3 |
| 20260502103117 | 22 | 91 | 3.2 | 11.3 | 0.00 | 0.00 | 0.00 | 63 | 1020.4 |
| 20260502102114 | 22 | 83 | 4.8 | 12.9 | 0.00 | 0.00 | 0.00 | 62 | 1020.4 |
| 20260502101050 | 22 | 78 | 4.8 | 12.9 | 0.00 | 0.00 | 0.00 | 63 | 1020.7 |
| 20260502100107 | 22 | 76 | 3.2 | 9.7 | 0.00 | 0.00 | 0.00 | 63 | 1020.7 |
| 20260502091033 | 21 | 55 | 3.2 | 12.9 | 0.00 | 0.00 | 0.00 | 65 | 1021.1 |
| 20260502071057 | 19 | 64 | 3.2 | 11.3 | 0.00 | 0.00 | 0.00 | 79 | 1021.2 |
| 20260502070114 | 18 | 60 | 4.8 | 11.3 | 0.00 | 0.00 | 0.00 | 83 | 1021.3 |
| 20260502065050 | 18 | 78 | 3.2 | 9.7 | 0.00 | 0.00 | 0.00 | 83 | 1021.3 |
| 20260502064108 | 17 | 66 | 3.2 | 9.7 | 0.00 | 0.00 | 0.00 | 83 | 1021.3 |
| 20260502063044 | 17 | 110 | 3.2 | 6.4 | 0.00 | 0.00 | 0.00 | 82 | 1021.3 |
| 20260502062042 | 18 | 84 | 1.6 | 6.4 | 0.00 | 0.00 | 0.00 | 80 | 1021.1 |
| 20260502061059 | 17 | 85 | 1.6 | 6.4 | 0.00 | 0.00 | 0.00 | 80 | 1021.0 |
| 20260502060036 | 17 | 45 | 1.6 | 3.2 | 0.00 | 0.00 | 0.00 | 79 | 1021.0 |
| 20260502055032 | 16 | 45 | 0.0 | 3.2 | 0.00 | 0.00 | 0.00 | 82 | 1020.7 |
| 20260502054029 | 15 | 45 | 0.0 | 3.2 | 0.00 | 0.00 | 0.00 | 83 | 1020.7 |
| 20260502053026 | 15 | 45 | 0.0 | 3.2 | 0.00 | 0.00 | 0.00 | 85 | 1020.5 |
| 20260502052024 | 15 | 0.0 | 0.0 | 0.00 | 0.00 | 0.00 | 85 | 1020.6 | |
| 20260502051020 | 15 | 0.0 | 0.0 | 0.00 | 0.00 | 0.00 | 81 | 1020.5 | |
| 20260502050017 | 15 | 0.0 | 3.2 | 0.00 | 0.00 | 0.00 | 82 | 1020.4 | |
| 20260502045135 | 15 | 0.0 | 3.2 | 0.00 | 0.00 | 0.00 | 83 | 1020.4 | |
| 20260502044112 | 15 | 0.0 | 3.2 | 0.00 | 0.00 | 0.00 | 83 | 1020.4 | |
| 20260502043109 | 15 | 0.0 | 3.2 | 0.00 | 0.00 | 0.00 | 84 | 1020.4 | |
| 20260502042127 | 15 | 0.0 | 3.2 | 0.00 | 0.00 | 0.00 | 85 | 1020.3 | |
| 20260502041102 | 15 | 0.0 | 0.0 | 0.00 | 0.00 | 0.00 | 86 | 1020.5 | |
| 20260502040100 | 15 | 0.0 | 3.2 | 0.00 | 0.00 | 0.00 | 86 | 1020.4 | |
| 20260502035056 | 15 | 45 | 1.6 | 3.2 | 0.00 | 0.00 | 0.00 | 86 | 1020.4 |
| 20260502034053 | 16 | 45 | 0.0 | 3.2 | 0.00 | 0.00 | 0.00 | 86 | 1020.6 |
| 20260502033050 | 16 | 45 | 1.6 | 3.2 | 0.00 | 0.00 | 0.00 | 85 | 1020.5 |
| 20260502032048 | 16 | 45 | 1.6 | 6.4 | 0.00 | 0.00 | 0.00 | 85 | 1020.6 |
| 20260502031044 | 16 | 45 | 0.0 | 3.2 | 0.00 | 0.00 | 0.00 | 84 | 1020.5 |
| 20260502030042 | 16 | 0.0 | 3.2 | 0.00 | 0.00 | 0.00 | 85 | 1020.6 | |
| 20260502025039 | 16 | 0.0 | 3.2 | 0.00 | 0.00 | 0.00 | 86 | 1020.6 | |
| 20260502024036 | 16 | 0.0 | 0.0 | 0.00 | 0.00 | 0.00 | 86 | 1020.6 | |
| 20260502023053 | 16 | 0.0 | 0.0 | 0.00 | 0.00 | 0.00 | 86 | 1020.6 | |
| 20260502022030 | 16 | 0.0 | 3.2 | 0.00 | 0.00 | 0.00 | 86 | 1020.6 | |
| 20260502021027 | 16 | 0.0 | 0.0 | 0.00 | 0.00 | 0.00 | 87 | 1020.7 | |
| 20260502020024 | 16 | 0.0 | 0.0 | 0.00 | 0.00 | 0.00 | 87 | 1020.8 | |
| 20260502015021 | 16 | 0.0 | 0.0 | 0.00 | 0.00 | 0.00 | 86 | 1020.9 | |
| 20260502014018 | 16 | 0.0 | 0.0 | 0.00 | 0.00 | 0.00 | 85 | 1020.8 | |
| 20260502013015 | 16 | 0.0 | 0.0 | 0.00 | 0.00 | 0.00 | 84 | 1020.9 | |
| 20260502012112 | 17 | 0.0 | 0.0 | 0.00 | 0.00 | 0.00 | 82 | 1020.9 | |
| 20260502011130 | 17 | 45 | 0.0 | 3.2 | 0.00 | 0.00 | 0.00 | 83 | 1020.7 |
| 20260502010107 | 17 | 45 | 0.0 | 3.2 | 0.00 | 0.00 | 0.00 | 83 | 1021.0 |
| 20260502005103 | 17 | 63 | 1.6 | 6.4 | 0.00 | 0.00 | 0.00 | 83 | 1021.0 |
| 20260502004100 | 17 | 45 | 3.2 | 3.2 | 0.00 | 0.00 | 0.00 | 82 | 1021.2 |
| 20260502003057 | 17 | 46 | 3.2 | 9.7 | 0.00 | 0.00 | 0.00 | 82 | 1021.3 |
| 20260502002055 | 17 | 50 | 3.2 | 6.4 | 0.00 | 0.00 | 0.00 | 82 | 1021.4 |
| 20260502001113 | 17 | 68 | 3.2 | 6.4 | 0.00 | 0.00 | 0.00 | 82 | 1021.6 |
| 20260502000048 | 17 | 55 | 1.6 | 6.4 | 0.00 | 0.00 | 0.00 | 82 | 1021.7 |
| 20260501235106 | 17 | 45 | 0.0 | 3.2 | 0.00 | 0.00 | 0.00 | 82 | 1021.8 |
| 20260501234042 | 17 | 46 | 3.2 | 6.4 | 0.00 | 0.00 | 0.00 | 82 | 1021.9 |
| 20260501233039 | 17 | 50 | 1.6 | 6.4 | 0.00 | 0.00 | 0.00 | 82 | 1022.0 |
| 20260501232036 | 17 | 54 | 1.6 | 3.2 | 0.00 | 0.00 | 0.00 | 82 | 1022.1 |
| 20260501231034 | 17 | 45 | 1.6 | 3.2 | 0.00 | 0.00 | 0.00 | 83 | 1022.3 |
| 20260501230031 | 17 | 68 | 0.0 | 3.2 | 0.00 | 0.00 | 0.00 | 84 | 1022.2 |
| 20260501225027 | 17 | 71 | 1.6 | 3.2 | 0.00 | 0.00 | 0.00 | 84 | 1022.3 |
| 20260501224024 | 17 | 56 | 0.0 | 3.2 | 0.00 | 0.00 | 0.00 | 84 | 1022.2 |
| 20260501223021 | 17 | 73 | 1.6 | 6.4 | 0.00 | 0.00 | 0.00 | 85 | 1022.1 |
| 20260501222018 | 17 | 60 | 3.2 | 6.4 | 0.00 | 0.00 | 0.00 | 85 | 1022.2 |
| 20260501221016 | 17 | 68 | 1.6 | 6.4 | 0.00 | 0.00 | 0.00 | 85 | 1022.3 |
| 20260501220113 | 17 | 70 | 1.6 | 9.7 | 0.00 | 0.00 | 0.00 | 85 | 1022.3 |
| 20260501215110 | 17 | 49 | 1.6 | 3.2 | 0.00 | 0.00 | 0.00 | 85 | 1022.2 |
| 20260501214107 | 17 | 54 | 1.6 | 6.4 | 0.00 | 0.00 | 0.00 | 85 | 1022.0 |
| 20260501213104 | 17 | 49 | 3.2 | 9.7 | 0.00 | 0.00 | 0.00 | 85 | 1021.9 |
| 20260501212101 | 17 | 60 | 3.2 | 6.4 | 0.00 | 0.00 | 0.00 | 85 | 1021.8 |
| 20260501211058 | 17 | 72 | 1.6 | 6.4 | 0.00 | 0.00 | 0.00 | 85 | 1021.8 |
| 20260501210055 | 17 | 54 | 1.6 | 6.4 | 0.00 | 0.00 | 0.00 | 84 | 1021.9 |
| 20260501205052 | 17 | 45 | 3.2 | 11.3 | 0.00 | 0.00 | 0.00 | 84 | 1021.7 |
| 20260501204049 | 17 | 66 | 1.6 | 9.7 | 0.00 | 0.00 | 0.00 | 84 | 1021.5 |
| 20260501203046 | 17 | 62 | 3.2 | 11.3 | 0.00 | 0.00 | 0.00 | 84 | 1021.6 |
| 20260501202043 | 17 | 79 | 1.6 | 3.2 | 0.00 | 0.00 | 0.00 | 84 | 1021.4 |
| 20260501201040 | 17 | 90 | 1.6 | 3.2 | 0.00 | 0.00 | 0.00 | 83 | 1021.4 |
| 20260501200037 | 17 | 49 | 1.6 | 6.4 | 0.00 | 0.00 | 0.00 | 82 | 1021.2 |
| 20260501195035 | 17 | 71 | 3.2 | 6.4 | 0.00 | 0.00 | 0.00 | 81 | 1021.2 |
| 20260501194031 | 17 | 45 | 4.8 | 11.3 | 0.00 | 0.00 | 0.00 | 81 | 1021.2 |
| 20260501193029 | 17 | 49 | 3.2 | 11.3 | 0.00 | 0.00 | 0.00 | 82 | 1021.2 |
| 20260501192046 | 18 | 51 | 4.8 | 12.9 | 0.00 | 0.00 | 0.00 | 82 | 1020.9 |
| 20260501191023 | 18 | 87 | 4.8 | 12.9 | 0.00 | 0.00 | 0.00 | 83 | 1020.7 |
| 20260501190100 | 18 | 102 | 1.6 | 6.4 | 0.00 | 0.00 | 0.00 | 83 | 1020.7 |
| 20260501185016 | 18 | 50 | 4.8 | 12.9 | 0.00 | 0.00 | 0.00 | 83 | 1020.4 |
| 20260501184113 | 18 | 62 | 3.2 | 9.7 | 0.00 | 0.00 | 0.00 | 83 | 1020.5 |
| 20260501183111 | 18 | 90 | 4.8 | 12.9 | 0.00 | 0.00 | 0.00 | 82 | 1020.4 |
| 20260501182108 | 18 | 96 | 4.8 | 11.3 | 0.00 | 0.00 | 0.00 | 82 | 1020.1 |
| 20260501181105 | 18 | 45 | 6.4 | 14.5 | 0.00 | 0.00 | 0.00 | 82 | 1020.0 |
| 20260501180101 | 18 | 82 | 4.8 | 11.3 | 0.00 | 0.00 | 0.00 | 82 | 1019.9 |
| 20260501175059 | 18 | 151 | 3.2 | 14.5 | 0.00 | 0.00 | 0.00 | 81 | 1019.8 |
| 20260501174056 | 18 | 92 | 3.2 | 12.9 | 0.00 | 0.00 | 0.00 | 81 | 1019.9 |
| 20260501173113 | 18 | 57 | 6.4 | 17.7 | 0.00 | 0.00 | 0.00 | 81 | 1019.8 |
| 20260501172050 | 18 | 68 | 4.8 | 11.3 | 0.00 | 0.00 | 0.00 | 81 | 1019.8 |
| 20260501171046 | 18 | 82 | 4.8 | 12.9 | 0.00 | 0.00 | 0.00 | 82 | 1019.7 |
| 20260501170043 | 18 | 90 | 1.6 | 6.4 | 0.00 | 0.00 | 0.00 | 83 | 1019.5 |
| 20260501165041 | 18 | 68 | 3.2 | 6.4 | 0.00 | 0.00 | 0.00 | 83 | 1019.5 |
| 20260501164038 | 18 | 68 | 1.6 | 6.4 | 0.00 | 0.00 | 0.00 | 84 | 1019.6 |
| 20260501163035 | 18 | 93 | 3.2 | 6.4 | 0.00 | 0.00 | 0.00 | 84 | 1019.5 |
| 20260501162032 | 18 | 70 | 1.6 | 6.4 | 0.00 | 0.00 | 0.00 | 84 | 1019.4 |
| 20260501161029 | 18 | 96 | 3.2 | 6.4 | 0.00 | 0.00 | 0.00 | 85 | 1019.6 |
| 20260501160026 | 18 | 59 | 4.8 | 12.9 | 0.00 | 0.00 | 0.00 | 84 | 1019.6 |
| 20260501155023 | 18 | 74 | 3.2 | 14.5 | 0.00 | 0.00 | 0.00 | 82 | 1019.5 |
| 20260501154020 | 18 | 56 | 3.2 | 12.9 | 0.00 | 0.00 | 0.00 | 81 | 1019.3 |